Naples, Italy

6:29 AM CEST on May 25, 2017 (GMT +0200)
Capodichino Mil

Weather History for LIRN - February, 2012

Change the Weather History Date:

Sunday, February 26, 2012

  Actual Average Record
Temperature  
Mean Temperature 50 °F -  
Max Temperature 57 °F 59 °F 63 °F (2017)
Min Temperature 44 °F 43 °F 32 °F (2003)
Degree Days  
Heating Degree Days 14    
Moisture  
Dew Point 43 °F    
Average Humidity 72    
Maximum Humidity 93    
Minimum Humidity 50    
Precipitation  
Precipitation 0.00 in 0.11 in - ()
Sea Level Pressure  
Sea Level Pressure 29.85 in    
Wind  
Wind Speed 6 mph ()    
Max Wind Speed 25 mph    
Max Gust Speed 36 mph    
Visibility 5.7 miles    
Events      
Averages and records for this station are not official NWS values.
T = Trace of Precipitation, MM = Missing Value Source: Averaged Metar Reports

Daily Weather History Graph

Daily Weather History Graph

Search for Another Location

Airport or City:

Trip Planner

Search our weather history database for the weather conditions in past years. The results will help you decide how hot, cold, wet, or windy it might be!

Date:

Astronomy

Feb. 26, 2012 Rise Set
Actual Time 6:42 AM CET 5:49 PM CET
Civil Twilight 6:14 AM CET 6:17 PM CET
Nautical Twilight 5:43 AM CET 6:49 PM CET
Astronomical Twilight 5:11 AM CET 7:20 PM CET
Moon 8:26 AM CET (2/26) 10:33 PM CET (2/26)
Length of Visible Light 12h 02m
Length of Day
11h 07m
Waxing Crescent, 19% of the Moon is Illuminated
Feb 26
Waxing Crescent
Mar 1
First Quarter
Mar 8
Full
Mar 15
Last Quarter
Mar 22
New

Hourly Weather History & Observations

Time (CET) Temp. Windchill Dew Point Humidity Pressure Visibility Wind Dir Wind Speed Gust Speed Precip Events Conditions
12:20 AM 46.4 °F 44.3 °F 44.6 °F 93% 30.01 in 5.0 mi West 4.6 mph - N/A   Partly Cloudy
12:50 AM 48.2 °F - 46.4 °F 93% 30.01 in 5.0 mi WSW 3.5 mph - N/A   Partly Cloudy
1:20 AM 44.6 °F 43.1 °F 41.0 °F 87% 29.98 in 5.0 mi SW 3.5 mph - N/A   Unknown
1:50 AM 46.4 °F - 42.8 °F 87% 29.98 in 5.0 mi Variable 2.3 mph - N/A   Unknown
2:20 AM 44.6 °F 42.2 °F 41.0 °F 87% 29.95 in 5.0 mi West 4.6 mph - N/A   Unknown
2:50 AM 46.4 °F 45.2 °F 44.6 °F 93% 29.95 in 5.0 mi SW 3.5 mph - N/A   Unknown
3:20 AM 48.2 °F - 44.6 °F 87% 29.92 in 5.0 mi South 2.3 mph - N/A   Scattered Clouds
3:50 AM 48.2 °F - 46.4 °F 93% 29.92 in 5.0 mi South 2.3 mph - N/A   Scattered Clouds
4:20 AM 46.4 °F - 42.8 °F 87% 29.92 in 5.0 mi Calm Calm - N/A   Mostly Cloudy
4:50 AM 48.2 °F - 46.4 °F 93% 29.89 in 5.0 mi South 3.5 mph - N/A   Mostly Cloudy
5:20 AM 48.2 °F - 46.4 °F 93% 29.89 in 5.0 mi SW 3.5 mph - N/A   Mostly Cloudy
5:50 AM 50.0 °F - 46.4 °F 87% 29.89 in 5.0 mi SSW 3.5 mph - N/A   Mostly Cloudy
6:20 AM 48.2 °F - 44.6 °F 87% 29.89 in 5.0 mi Variable 2.3 mph - N/A   Mostly Cloudy
6:50 AM 46.4 °F 42.9 °F 44.6 °F 93% 29.89 in 5.0 mi West 6.9 mph - N/A   Scattered Clouds
7:20 AM 46.4 °F - 44.6 °F 93% 29.89 in 5.0 mi Variable 2.3 mph - N/A   Scattered Clouds
7:50 AM 50.0 °F - 46.4 °F 87% 29.89 in 5.0 mi SSW 3.5 mph - N/A   Scattered Clouds
8:20 AM 50.0 °F - 46.4 °F 87% 29.89 in 5.0 mi Variable 2.3 mph - N/A   Partly Cloudy
8:50 AM 51.8 °F - 46.4 °F 82% 29.86 in 5.0 mi Variable 1.2 mph - N/A   Scattered Clouds
9:20 AM 53.6 °F - 46.4 °F 77% 29.86 in 5.0 mi Variable 2.3 mph - N/A   Scattered Clouds
9:50 AM 53.6 °F - 46.4 °F 77% 29.86 in 5.0 mi West 3.5 mph - N/A   Scattered Clouds
10:20 AM 55.4 °F - 46.4 °F 72% 29.86 in 6.2 mi Variable 3.5 mph - N/A   Mostly Cloudy
10:50 AM 55.4 °F - 44.6 °F 67% 29.86 in 6.2 mi West 6.9 mph - N/A   Mostly Cloudy
11:20 AM 55.4 °F - 44.6 °F 67% 29.83 in 6.2 mi West 4.6 mph - N/A   Mostly Cloudy
11:50 AM 55.4 °F - 44.6 °F 67% 29.83 in 6.2 mi NW 10.4 mph - N/A   Mostly Cloudy
12:20 PM 55.4 °F - 44.6 °F 67% 29.83 in 6.2 mi West 9.2 mph - N/A   Mostly Cloudy
12:50 PM 57.2 °F - 44.6 °F 63% 29.80 in 6.2 mi WNW 5.8 mph - N/A   Mostly Cloudy
1:20 PM 57.2 °F - 42.8 °F 59% 29.80 in 6.2 mi West 10.4 mph - N/A   Mostly Cloudy
1:50 PM 57.2 °F - 42.8 °F 59% 29.80 in 6.2 mi WNW 5.8 mph - N/A   Mostly Cloudy
2:20 PM 57.2 °F - 42.8 °F 59% 29.77 in 6.2 mi WNW 8.1 mph - N/A   Mostly Cloudy
2:50 PM 57.2 °F - 41.0 °F 55% 29.77 in 6.2 mi West 9.2 mph - N/A   Mostly Cloudy
3:20 PM 57.2 °F - 42.8 °F 59% 29.77 in 6.2 mi West 9.2 mph - N/A   Mostly Cloudy
3:50 PM 57.2 °F - 42.8 °F 59% 29.77 in 6.2 mi West 4.6 mph - N/A   Mostly Cloudy
4:20 PM 55.4 °F - 42.8 °F 63% 29.77 in 6.2 mi West 5.8 mph - N/A   Mostly Cloudy
4:50 PM 57.2 °F - 42.8 °F 59% 29.77 in 6.2 mi NNW 4.6 mph - N/A   Mostly Cloudy
5:20 PM 55.4 °F - 42.8 °F 63% 29.77 in 6.2 mi NNW 3.5 mph - N/A   Mostly Cloudy
5:50 PM 55.4 °F - 44.6 °F 67% 29.77 in 6.2 mi North 4.6 mph - N/A   Mostly Cloudy
6:20 PM 55.4 °F - 44.6 °F 67% 29.80 in 6.2 mi North 5.8 mph - N/A   Mostly Cloudy
6:50 PM 55.4 °F - 44.6 °F 67% 29.80 in 6.2 mi North 4.6 mph - N/A   Mostly Cloudy
7:20 PM 55.4 °F - 44.6 °F 67% 29.80 in 6.2 mi North 8.1 mph - N/A   Mostly Cloudy
7:50 PM 51.8 °F - 33.8 °F 50% 29.80 in 6.2 mi NE 23.0 mph - N/A   Mostly Cloudy
8:20 PM 51.8 °F - 33.8 °F 50% 29.80 in 6.2 mi NE 17.3 mph - N/A   Mostly Cloudy
8:50 PM 50.0 °F - 33.8 °F 54% 29.80 in 6.2 mi NE 18.4 mph - N/A   Mostly Cloudy
9:20 PM 50.0 °F - 35.6 °F 58% 29.83 in 6.2 mi ENE 16.1 mph - N/A   Mostly Cloudy
9:50 PM 50.0 °F - 35.6 °F 58% 29.83 in 6.2 mi ENE 25.3 mph - N/A   Mostly Cloudy
10:20 PM 48.2 °F - 35.6 °F 62% 29.86 in 6.2 mi NE 20.7 mph - N/A   Mostly Cloudy
10:50 PM 48.2 °F - 35.6 °F 62% 29.83 in 6.2 mi NE 19.6 mph - N/A   Mostly Cloudy
11:20 PM 48.2 °F - 35.6 °F 62% 29.83 in 6.2 mi NE 21.9 mph 33.4 mph N/A   Mostly Cloudy
11:50 PM 50.0 °F - 32.0 °F 50% 29.83 in 6.2 mi ENE 19.6 mph 35.7 mph N/A   Mostly Cloudy